Tracking 28052 objects as of 23-Sep-2023
HD Live streaming from Space Station
objects crossing your sky now

ICEYE-X7

Track ICEYE-X7 now!
10-day predictions


NORAD ID: 46496
Int'l Code: 2020-068L
Perigee: 554.3 km
Apogee: 573.7 km
Inclination: 97.6 °
Period: 95.8 minutes
Semi major axis: 6934 km
RCS: Unknown
Launch date: September 28, 2020
Source: (FIN)
Launch site: PLESETSK MISSILE AND SPACE COMPLEX (PKMTR)
Your satellite tracking list
Your tracking list is empty




NASA's NSSDC Master Catalog

Two Line Element Set (TLE):
1 46496U 20068L   23266.48450212  .00008112  00000-0  60169-3 0  9997
2 46496  97.6483 201.7402 0014037 155.6080 204.5812 15.03261323163541
Source of the keplerian elements: AFSPC